#timestamp,LO_Frequency,Hit,StdDev 
1697731215.8,286047000.3,N
1697731235.7,286047002.7,N
1697731255.5,286047002.6,N
1697731275.3,286047000.9,N
1697731295.2,286046999.3,N
1697731315.0,286046998.1,N
1697731315.9,286046998.1,N
1697731335.8,286046999.8,N
1697731355.6,286047002.8,N
1697731375.4,286047004.3,N
1697731395.3,286047003.2,N
1697731415.1,286047005.4,N
1697731435.8,286047004.8,N
1697731455.7,286047007.0,Y
1697731475.5,286047006.2,P
1697731495.4,286047005.0,N
1697731515.2,286047005.6,N
1697731535.0,286047007.0,Y
1697731535.9,286047007.0,P
1697731555.8,286047003.9,P
1697731575.6,286047000.6,N
1697731595.4,286046998.6,N
1697731615.3,286046996.7,N
1697731635.1,286046998.5,N
1697731655.9,286046996.9,N
1697731675.7,286046998.8,N
1697731695.5,286046996.5,N
1697731715.4,286047000.8,N
1697731735.2,286047000.6,N
1697731755.0,286047000.4,N
1697731755.9,286047000.4,N
1697731775.8,286046999.9,N
1697731795.6,286047003.2,N
1697731815.5,286047005.2,N
1697731835.3,286047005.7,N
1697731855.1,286047005.7,N
1697731875.9,286047005.3,N
1697731895.7,286047007.0,N
1697731915.5,286047004.6,N
1697731935.4,286047007.3,N
1697731955.2,286047006.7,N
1697731975.1,286047010.8,Y
1697731976.0,286047010.8,P
1697731995.8,286047006.4,N
1697732015.6,286047007.1,N
1697732035.5,286047004.6,N
1697732055.3,286047006.4,N
1697732075.1,286047008.2,Y
1697732095.9,286047000.3,P
1697732115.7,286046997.0,N
1697732135.6,286047000.7,N
1697732155.4,286047000.5,N
1697732175.2,286046999.7,N
1697732195.1,286046996.7,N
1697732196.0,286046996.7,N
1697732215.8,286046995.0,N
1697732235.6,286046998.0,N
1697732255.5,286046995.5,N
1697732275.3,286046996.7,N
1697732295.2,286046997.2,N
1697732315.9,286047000.7,N
1697732335.7,286047000.7,N
1697732355.6,286047000.3,N
1697732375.4,286046998.3,N
1697732395.2,286046997.0,N
1697732415.1,286046997.6,N
1697732416.0,286046997.6,N
1697732435.8,286046996.9,N
1697732455.7,286046997.8,N
1697732475.5,286046998.7,N
1697732495.3,286046996.7,N
1697732515.2,286046999.5,N
1697732535.0,286046998.4,N
1697732535.9,286046998.4,N
1697732555.7,286047000.9,N
1697732575.6,286047000.2,N
1697732595.4,286047001.9,N
1697732615.3,286047001.5,N
1697732635.1,286047004.1,N
1697732636.0,286047004.1,N
1697732655.8,286047001.3,N
1697732675.7,286047005.0,N
1697732695.5,286047006.8,N
1697732715.3,286047006.4,N
1697732735.2,286047007.4,N
1697732755.0,286047002.9,N
1697732755.9,286047002.9,N
1697732775.8,286047004.2,N
1697732795.6,286047005.9,N
1697732815.4,286047005.7,N
1697732835.3,286047003.7,N
1697732855.1,286047001.8,N
1697732875.8,286047004.4,N
1697732895.7,286047003.1,N
1697732915.5,286047004.8,N
1697732935.4,286047003.5,N
1697732955.2,286047001.4,N
1697732975.0,286047002.2,N
1697732975.9,286047002.2,N
1697732995.8,286047001.6,N
1697733015.6,286047001.9,N
1697733035.5,286047004.3,N
1697733055.3,286047006.8,Y
1697733075.1,286047003.2,P
1697733095.9,286047003.9,P
1697733115.7,286047007.2,P
1697733135.5,286047011.6,Y
1697733155.4,286047006.0,P
1697733175.2,286047008.4,P
1697733195.1,286047006.4,P
1697733196.0,286047006.4,Y
1697733215.8,286047002.1,P
1697733235.6,286047003.5,N
1697733255.5,286047005.8,P
1697733275.3,286046998.7,N
1697733295.1,286046998.1,N
1697733315.9,286047001.2,N
1697733335.7,286047002.5,N
1697733355.6,286047000.0,N
1697733375.4,286046999.8,N
1697733395.2,286047001.5,N
1697733415.1,286047002.0,N
1697733416.0,286047002.0,N
1697733435.8,286047001.7,N
1697733455.6,286047005.7,N
1697733475.5,286047003.9,N
1697733495.3,286047004.3,N
1697733515.2,286047003.8,N
1697733535.9,286047004.3,N
1697733555.7,286047005.7,N
1697733575.6,286047009.0,Y
1697733595.4,286047006.5,P
1697733615.2,286047008.4,P
1697733635.1,286047006.4,N
1697733636.0,286047006.4,Y
1697733655.8,286046998.3,P
1697733675.7,286046999.0,N
1697733695.5,286046998.2,N
1697733715.3,286047000.0,N
1697733735.2,286047002.2,N
1697733755.0,286047002.5,N
1697733755.9,286047002.5,N
1697733775.8,286047002.0,N
1697733795.6,286047004.2,N
1697733815.4,286047002.1,N
1697733835.3,286047002.3,N
1697733855.1,286047002.5,N
1697733875.8,286047001.5,N
1697733895.7,286047002.6,N
1697733915.5,286047001.6,N
1697733935.4,286047006.0,Y
1697733955.2,286047002.3,P
1697733975.0,286047002.1,P
1697733975.9,286047002.1,P
1697733995.8,286047003.6,Y
1697734015.6,286046998.2,P
1697734035.5,286047004.0,N
1697734055.3,286047000.1,N
1697734075.1,286047001.2,N
1697734095.9,286047000.5,N
1697734115.7,286047000.0,N
1697734135.5,286046998.1,N
1697734155.4,286046998.2,N
1697734175.2,286046996.5,N
1697734195.0,286046997.8,N
1697734196.0,286046997.8,N
1697734215.8,286046999.2,N
1697734235.6,286046999.7,N
1697734255.5,286047002.5,N
1697734275.3,286047001.9,N
1697734295.1,286047006.0,N
1697734315.9,286047004.3,N
1697734335.7,286047001.9,N
1697734355.6,286047003.3,N
1697734375.4,286047005.5,N
1697734395.2,286047003.2,N
1697734415.1,286047005.8,N
1697734416.0,286047005.8,N
1697734435.8,286047003.0,N
1697734455.6,286047003.7,N
1697734475.5,286047002.2,N
1697734495.3,286047002.0,N
1697734515.2,286047006.0,N
1697734535.9,286047004.4,N
1697734555.7,286047001.5,N
1697734575.6,286047004.2,N
1697734595.4,286047003.1,N
1697734615.2,286047004.3,N
1697734635.1,286047003.6,N
1697734636.0,286047003.6,N
1697734655.8,286047001.4,N
1697734675.6,286047004.2,N
1697734695.5,286047003.5,N
1697734715.3,286047005.9,N
1697734735.2,286047003.1,N
1697734755.0,286047004.7,N
1697734755.9,286047004.7,N
1697734775.7,286047006.8,Y
1697734795.6,286047005.6,P
